小惑星2008 OB9

2008 OB9

English version
Home page
Total 6,336 html files since Dec. 4, 1995
Updated on October 15, 2008

---------------------------------------------------------------------

・ プロフィール

発見日 2008年7月29日
発見光度 20.7等
発見者 Mt. Lemmon Survey

・ 軌道要素

The following orbital elements are taken from MPEC 2008-S63:

Epoch 2008 Nov. 30.0 TT = JDT 2454800.5                 MPC
M 349.27029              (2000.0)            P               Q
n   0.17071930     Peri.  238.15886     +0.16181442     -0.98257363
a   3.2182094      Node   203.06252     +0.96581047     +0.17671102
e   0.7563610      Incl.   13.50186     +0.20254931     -0.05763916
P   5.77           H   17.4           G   0.15           U   4
From 69 observations 2008 July 29-Sept. 23, mean residual 0".43.

・ 光度変化

        H = 17.3  G = 0.15

---------------------------------------------------------------------

軌道要素はMPCのEphemerides and Orbital Elementsに掲載されたものです。
光度グラフはComet for Windowsで作成したものです。

---------------------------------------------------------------------

Copyright(C) 1995-2008 Seiichi Yoshida (comet@aerith.net). All rights reserved.